DW4554 Weather Reports


time (UTC)temp
C
wind
direction
speed
KPH
gust
KPH
rain 1hr
cm
rain 24hr
cm
rain mn
cm
humidity
%
barometer
mb
20260905040904 18 274 1.6 4.8 0.00 0.00 0.00 76 1013.4
20260905040404 18 201 3.2 8.0 0.00 0.00 0.00 76 1013.2
20260905035904 18 269 1.6 3.2 0.00 0.00 0.00 75 1013.1
20260905035406 18 269 1.6 4.8 0.00 0.00 0.00 75 1013.1
20260905034404 19 41 0.0 0.0 0.00 0.00 0.00 74 1012.6
20260905033404 19 41 0.0 0.0 0.00 0.00 0.00 72 1012.5
20260905032904 19 41 0.0 0.0 0.00 0.00 0.00 72 1012.3
20260905032405 20 41 0.0 0.0 0.00 0.00 0.00 71 1012.4
20260905031904 20 41 1.6 4.8 0.00 0.00 0.00 71 1012.2
20260905031405 20 41 0.0 0.0 0.00 0.00 0.00 70 1012.1
20260905030904 20 41 0.0 0.0 0.00 0.00 0.00 70 1012.3
20260905030404 20 41 0.0 1.6 0.00 0.00 0.00 70 1012.2
20260905025904 20 41 0.0 3.2 0.00 0.00 0.00 69 1012.2
20260905025405 20 50 4.8 9.7 0.00 0.00 0.00 69 1011.8
20260905024904 21 35 4.8 9.7 0.00 0.00 0.00 68 1011.8
20260905023904 21 36 3.2 9.7 0.00 0.00 0.00 68 1011.8
20260905023404 21 39 1.6 4.8 0.00 0.00 0.00 67 1011.7
20260905022905 21 49 4.8 12.9 0.00 0.00 0.00 67 1011.7
20260905022404 21 33 8.0 16.1 0.00 0.00 0.00 67 1011.8
20260905021904 21 24 8.0 14.5 0.00 0.00 0.00 67 1011.8
20260905021404 21 357 4.8 9.7 0.00 0.00 0.00 67 1011.6
20260905020905 21 277 6.4 16.1 0.00 0.00 0.00 67 1011.3
20260905020404 21 270 4.8 12.9 0.00 0.00 0.00 67 1011.2
20260905015404 21 281 6.4 19.3 0.00 0.00 0.00 68 1011.1
20260905014904 21 279 6.4 19.3 0.00 0.00 0.00 69 1010.9
20260905014413 21 292 9.7 16.1 0.00 0.00 0.00 70 1010.8
20260905013404 20 224 3.2 14.5 0.00 0.00 0.00 73 1010.2
20260905012904 20 242 9.7 16.1 0.00 0.00 0.00 73 1010.1
20260905012405 20 266 4.8 14.5 0.00 0.00 0.00 74 1009.9
20260905011905 20 324 3.2 4.8 0.00 0.00 0.00 77 1009.9
20260905011404 20 36 1.6 3.2 0.00 0.00 0.00 77 1009.7
20260905010905 20 36 0.0 0.0 0.00 0.00 0.00 76 1009.6
20260905010405 20 36 0.0 1.6 0.00 0.00 0.00 76 1009.6
20260905005904 20 36 0.0 1.6 0.00 0.00 0.00 76 1009.5
20260905005404 21 36 0.0 1.6 0.00 0.00 0.00 75 1009.5
20260905004404 21 36 0.0 0.0 0.00 0.00 0.00 74 1009.5
20260905003904 21 36 0.0 0.0 0.00 0.00 0.00 74 1009.5
20260905003404 21 36 0.0 0.0 0.00 0.00 0.00 73 1009.4
20260905002904 21 36 0.0 0.0 0.00 0.00 0.00 72 1009.4
20260905002404 21 36 0.0 0.0 0.00 0.00 0.00 72 1009.4
20260905001904 21 36 0.0 0.0 0.00 0.00 0.00 72 1009.5
20260905001405 21 36 0.0 0.0 0.00 0.00 0.00 71 1009.5
20260905000405 21 36 0.0 4.8 0.00 0.00 0.00 71 1009.4
20260904235904 21 36 1.6 3.2 0.00 0.00 0.00 70 1009.4
20260904235404 21 36 0.0 4.8 0.00 0.00 0.00 71 1009.4
20260904234404 21 36 3.2 4.8 0.00 0.00 0.00 71 1009.4
20260904233904 21 36 0.0 1.6 0.00 0.00 0.00 71 1009.5
20260904233404 21 36 1.6 4.8 0.00 0.00 0.00 70 1009.5
20260904232904 21 36 3.2 8.0 0.00 0.00 0.00 70 1009.4
20260904232404 21 38 3.2 4.8 0.00 0.00 0.00 70 1009.4
20260904231904 21 38 1.6 29.0 0.00 0.00 0.00 70 1009.3
20260904231404 21 38 3.2 4.8 0.00 0.00 0.00 70 1009.3
20260904230904 21 48 3.2 4.8 0.00 0.00 0.00 70 1009.3
20260904225904 21 57 3.2 4.8 0.00 0.00 0.00 70 1009.2
20260904225404 21 87 3.2 4.8 0.00 0.00 0.00 70 1009.2
20260904224906 21 88 1.6 3.2 0.00 0.00 0.00 70 1009.3
20260904224404 21 88 1.6 4.8 0.00 0.00 0.00 70 1009.2
20260904223405 21 88 1.6 4.8 0.00 0.00 0.00 70 1009.2
20260904222405 21 88 3.2 4.8 0.00 0.00 0.00 70 1009.1
20260904221904 21 89 0.0 3.2 0.00 0.00 0.00 69 1009.1
20260904221405 21 89 3.2 4.8 0.00 0.00 0.00 69 1009.1
20260904220904 21 105 3.2 4.8 0.00 0.00 0.00 69 1009.2
20260904220404 21 115 0.0 3.2 0.00 0.00 0.00 69 1009.2
20260904215904 21 115 3.2 3.2 0.00 0.00 0.00 70 1009.2
20260904215404 21 115 3.2 4.8 0.00 0.00 0.00 70 1009.2
20260904214904 21 133 1.6 4.8 0.00 0.00 0.00 70 1009.2
20260904214404 21 136 1.6 3.2 0.00 0.00 0.00 70 1009.1
20260904213404 21 136 0.0 0.0 0.00 0.00 0.00 70 1009.2
20260904212904 21 136 0.0 0.0 0.00 0.00 0.00 70 1009.2
20260904212404 21 136 0.0 0.0 0.00 0.00 0.00 69 1009.2
20260904211904 21 136 0.0 4.8 0.00 0.00 0.00 70 1009.3
20260904211404 21 136 1.6 4.8 0.00 0.00 0.00 70 1009.3
20260904210905 21 134 0.0 4.8 0.00 0.00 0.00 70 1009.2
20260904210404 21 133 1.6 4.8 0.00 0.00 0.00 69 1009.3
20260904205904 21 101 0.0 0.0 0.00 0.00 0.00 69 1009.3
20260904205404 21 101 0.0 1.6 0.00 0.00 0.00 68 1009.3
20260904204904 21 101 0.0 0.0 0.00 0.00 0.00 68 1009.4
20260904204404 21 101 0.0 3.2 0.00 0.00 0.00 68 1009.4
20260904203905 21 101 1.6 3.2 0.00 0.00 0.00 67 1009.6
20260904203404 21 101 0.0 1.6 0.00 0.00 0.00 67 1009.6
20260904202904 22 101 1.6 3.2 0.00 0.00 0.00 66 1009.7
20260904202405 22 101 1.6 4.8 0.00 0.00 0.00 66 1009.7
20260904201405 22 101 3.2 4.8 0.00 0.00 0.00 65 1009.8
20260904200904 22 206 1.6 4.8 0.00 0.00 0.00 65 1009.8
20260904200404 22 206 1.6 3.2 0.00 0.00 0.00 64 1009.8
20260904195904 22 206 0.0 3.2 0.00 0.00 0.00 63 1009.9
20260904195404 22 206 1.6 3.2 0.00 0.00 0.00 63 1010.0
20260904194405 23 206 0.0 1.6 0.00 0.00 0.00 61 1010.0
20260904193904 23 206 0.0 0.0 0.00 0.00 0.00 60 1009.9
20260904193404 23 206 0.0 1.6 0.00 0.00 0.00 59 1009.9
20260904192905 23 206 0.0 0.0 0.00 0.00 0.00 59 1010.0
20260904192404 23 206 0.0 0.0 0.00 0.00 0.00 59 1010.0
20260904191404 24 207 1.6 8.0 0.00 0.00 0.00 58 1010.0
20260904190905 24 213 0.0 4.8 0.00 0.00 0.00 58 1010.1
20260904190405 24 213 3.2 4.8 0.00 0.00 0.00 58 1010.1
20260904185904 25 213 3.2 4.8 0.00 0.00 0.00 57 1010.0
20260904185404 25 213 0.0 1.6 0.00 0.00 0.00 56 1010.0
20260904184904 25 213 1.6 3.2 0.00 0.00 0.00 56 1009.9
20260904184404 25 213 1.6 4.8 0.00 0.00 0.00 55 1009.9
20260904183404 25 213 4.8 4.8 0.00 0.00 0.00 54 1009.8
20260904182904 26 211 3.2 4.8 0.00 0.00 0.00 54 1009.7
20260904182404 26 211 3.2 4.8 0.00 0.00 0.00 53 1009.7
20260904181904 26 211 3.2 4.8 0.00 0.00 0.00 53 1009.7
20260904181404 26 211 4.8 8.0 0.00 0.00 0.00 52 1009.7
20260904180904 26 207 4.8 8.0 0.00 0.00 0.00 52 1009.5
20260904175906 26 204 3.2 4.8 0.00 0.00 0.00 51 1009.4
20260904175404 27 203 3.2 8.0 0.00 0.00 0.00 51 1009.3
20260904174904 27 202 3.2 8.0 0.00 0.00 0.00 50 1009.2
20260904174404 27 198 4.8 11.3 0.00 0.00 0.00 50 1009.2
20260904173904 27 189 4.8 12.9 0.00 0.00 0.00 49 1009.2
20260904173405 27 195 6.4 12.9 0.00 0.00 0.00 49 1009.2
20260904172904 27 238 6.4 16.1 0.00 0.00 0.00 49 1009.2
20260904171404 27 194 8.0 12.9 0.00 0.00 0.00 48 1009.2
20260904170905 28 219 6.4 19.3 0.00 0.00 0.00 48 1009.1
20260904170404 28 224 6.4 12.9 0.00 0.00 0.00 48 1009.1
20260904165405 28 209 9.7 19.3 0.00 0.00 0.00 47 1009.0
20260904164904 28 216 8.0 16.1 0.00 0.00 0.00 47 1009.1
20260904164404 28 202 9.7 16.1 0.00 0.00 0.00 46 1009.1
20260904163904 28 218 11.3 29.0 0.00 0.00 0.00 46 1009.1
20260904163404 28 218 8.0 12.9 0.00 0.00 0.00 46 1009.2
20260904162905 28 218 8.0 16.1 0.00 0.00 0.00 45 1009.3
20260904162404 28 213 8.0 19.3 0.00 0.00 0.00 45 1009.4
20260904161904 29 226 9.7 14.5 0.00 0.00 0.00 44 1009.5
20260904161404 29 220 9.7 19.3 0.00 0.00 0.00 45 1009.6
20260904160905 29 227 9.7 19.3 0.00 0.00 0.00 44 1009.7
20260904160405 29 235 11.3 20.9 0.00 0.00 0.00 44 1009.7
20260904155904 30 229 4.8 11.3 0.00 0.00 0.00 45 1009.8
20260904155404 30 215 9.7 24.1 0.00 0.00 0.00 44 1009.9
20260904154904 30 221 14.5 27.4 0.00 0.00 0.00 43 1009.9
20260904154404 30 225 11.3 25.7 0.00 0.00 0.00 43 1010.0
20260904153904 30 240 12.9 27.4 0.00 0.00 0.00 43 1010.0
20260904152905 30 213 11.3 19.3 0.00 0.00 0.00 44 1010.2
20260904152404 30 228 14.5 22.5 0.00 0.00 0.00 44 1010.3
20260904151905 30 217 8.0 19.3 0.00 0.00 0.00 45 1010.3
20260904151404 29 235 9.7 19.3 0.00 0.00 0.00 46 1010.4
20260904150905 29 194 9.7 25.7 0.00 0.00 0.00 46 1010.5
20260904150405 28 197 9.7 19.3 0.00 0.00 0.00 47 1010.6
20260904145904 28 202 11.3 19.3 0.00 0.00 0.00 46 1010.7
20260904144904 28 204 8.0 19.3 0.00 0.00 0.00 48 1010.9
20260904144405 28 217 11.3 19.3 0.00 0.00 0.00 48 1010.9
20260904143905 28 219 9.7 24.1 0.00 0.00 0.00 49 1011.0
20260904143404 28 204 6.4 12.9 0.00 0.00 0.00 49 1011.0
20260904142404 28 205 4.8 11.3 0.00 0.00 0.00 49 1011.2
20260904141904 28 209 8.0 16.1 0.00 0.00 0.00 49 1011.3
20260904140905 28 232 4.8 9.7 0.00 0.00 0.00 49 1011.4
20260904140404 28 233 9.7 19.3 0.00 0.03 0.00 49 1011.5
20260904135904 28 249 9.7 20.9 0.00 0.03 0.00 49 1011.6
20260904135404 28 240 11.3 22.5 0.00 0.03 0.00 49 1011.7
20260904134904 28 243 8.0 19.3 0.00 0.03 0.00 50 1011.7
20260904133904 28 204 9.7 19.3 0.00 0.03 0.00 50 1011.9
20260904133404 28 202 8.0 19.3 0.00 0.03 0.00 50 1012.0
20260904132904 28 231 8.0 19.3 0.00 0.03 0.00 50 1012.0
20260904132404 28 228 11.3 19.3 0.00 0.03 0.00 51 1012.0
20260904131904 27 208 11.3 19.3 0.00 0.03 0.00 52 1012.1
20260904131404 27 232 8.0 16.1 0.00 0.03 0.00 53 1012.1
20260904130404 27 233 4.8 11.3 0.00 0.03 0.00 54 1012.4
20260904125904 27 200 6.4 12.9 0.00 0.03 0.00 55 1012.4
20260904125406 26 180 1.6 12.9 0.00 0.03 0.00 56 1012.4
20260904124904 26 216 4.8 12.9 0.00 0.03 0.00 58 1012.5
20260904124404 26 196 6.4 16.1 0.00 0.03 0.00 57 1012.6
20260904123904 26 201 4.8 14.5 0.00 0.03 0.00 57 1012.7
20260904123404 26 197 6.4 14.5 0.00 0.03 0.00 57 1012.8
20260904122904 26 199 4.8 19.3 0.00 0.03 0.00 58 1012.8
20260904122405 25 191 6.4 14.5 0.00 0.03 0.00 58 1012.9
20260904121904 25 184 4.8 12.9 0.00 0.03 0.00 57 1013.0
20260904121404 25 212 4.8 12.9 0.00 0.03 0.00 57 1013.1
20260904120904 25 193 3.2 8.0 0.00 0.03 0.00 57 1013.2
20260904120404 25 234 9.7 19.3 0.00 0.03 0.00 57 1013.4
20260904115904 25 218 6.4 12.9 0.00 0.03 0.00 58 1013.4
20260904113904 25 187 9.7 22.5 0.00 0.03 0.00 58 1013.7
20260904113404 25 170 1.6 9.7 0.00 0.03 0.00 60 1013.8
20260904112904 25 198 4.8 12.9 0.00 0.03 0.00 60 1013.9
20260904112404 25 190 4.8 19.3 0.00 0.03 0.00 59 1013.9
20260904111404 25 202 8.0 11.3 0.00 0.03 0.00 59 1014.0
20260904110904 25 192 4.8 14.5 0.00 0.03 0.00 61 1014.0
20260904110404 24 173 3.2 8.0 0.00 0.03 0.00 61 1014.1
20260904105904 24 178 6.4 14.5 0.00 0.03 0.00 61 1014.2
20260904105404 24 182 8.0 16.1 0.00 0.03 0.00 62 1014.3
20260904104904 24 134 4.8 12.9 0.00 0.03 0.00 62 1014.3
20260904104404 23 180 4.8 11.3 0.00 0.03 0.00 64 1014.4
20260904103905 23 159 1.6 4.8 0.00 0.03 0.00 63 1014.6
20260904101904 23 190 4.8 14.5 0.00 0.03 0.00 63 1014.9
20260904101404 23 186 4.8 11.3 0.00 0.03 0.00 65 1015.0
20260904100905 23 208 6.4 19.3 0.00 0.03 0.00 63 1015.0
20260904100405 23 219 8.0 12.9 0.00 0.03 0.00 66 1015.1
20260904095904 23 231 4.8 11.3 0.00 0.03 0.00 67 1015.3
20260904094904 22 235 8.0 12.9 0.00 0.03 0.00 67 1015.5
20260904094404 22 238 8.0 16.1 0.00 0.03 0.00 68 1015.5
20260904093904 22 207 3.2 11.3 0.00 0.03 0.00 68 1015.6
20260904092904 22 193 3.2 8.0 0.00 0.03 0.00 69 1015.7
20260904092404 22 188 3.2 8.0 0.00 0.03 0.00 68 1015.8
20260904091904 22 180 4.8 9.7 0.00 0.03 0.00 68 1015.8
20260904091404 22 207 6.4 12.9 0.00 0.03 0.00 68 1015.8
20260904090904 22 214 4.8 9.7 0.00 0.03 0.00 69 1015.8
20260904085904 22 217 8.0 16.1 0.00 0.03 0.00 68 1015.9
20260904084905 22 231 4.8 12.9 0.00 0.03 0.00 70 1016.0
20260904084405 22 174 8.0 11.3 0.00 0.03 0.00 70 1016.1
20260904083904 21 194 4.8 9.7 0.00 0.03 0.00 70 1016.2
20260904083405 21 186 1.6 8.0 0.00 0.03 0.00 70 1016.3
20260904081904 21 205 6.4 9.7 0.00 0.03 0.00 72 1016.3
20260904080404 20 175 4.8 9.7 0.00 0.03 0.00 73 1016.5
20260904075905 20 173 4.8 9.7 0.00 0.03 0.00 74 1016.6
20260904075404 20 245 6.4 9.7 0.00 0.03 0.00 75 1016.7
20260904074904 20 210 1.6 4.8 0.00 0.03 0.00 75 1016.6
20260904074404 20 222 1.6 4.8 0.00 0.03 0.00 76 1016.5
20260904073905 20 222 4.8 4.8 0.00 0.03 0.00 76 1016.6
20260904072904 19 222 4.8 8.0 0.00 0.03 0.00 76 1016.6
20260904072404 19 204 1.6 4.8 0.00 0.03 0.00 77 1016.5
20260904071905 19 204 3.2 4.8 0.00 0.03 0.00 77 1016.5
20260904071404 18 204 4.8 9.7 0.00 0.03 0.00 78 1016.5
20260904070404 18 209 3.2 4.8 0.00 0.03 0.00 80 1016.5
20260904064904 17 242 1.6 8.0 0.00 0.03 0.00 83 1016.6
20260904064404 17 79 1.6 4.8 0.00 0.03 0.00 83 1016.6
20260904063905 17 58 0.0 0.0 0.00 0.03 0.00 84 1016.5
20260904062904 17 58 0.0 0.0 0.00 0.03 0.00 85 1016.5
20260904062405 17 58 0.0 1.6 0.00 0.03 0.00 85 1016.4
20260904061404 17 58 0.0 0.0 0.00 0.03 0.00 86 1016.5
20260904060904 16 58 0.0 3.2 0.00 0.03 0.00 86 1016.4
20260904060404 16 58 0.0 3.2 0.00 0.03 0.00 86 1016.4
20260904055905 16 58 0.0 3.2 0.00 0.03 0.00 87 1016.3
20260904054404 16 58 1.6 3.2 0.00 0.03 0.00 87 1016.3
20260904053904 16 58 3.2 4.8 0.00 0.03 0.00 87 1016.4
20260904053404 16 58 1.6 3.2 0.00 0.03 0.00 87 1016.3
20260904052905 16 58 1.6 3.2 0.00 0.03 0.00 87 1016.3
20260904052404 16 58 1.6 4.8 0.00 0.03 0.00 88 1016.2
20260904051905 15 56 1.6 4.8 0.00 0.03 0.00 88 1016.2
20260904051404 15 51 0.0 3.2 0.00 0.03 0.00 89 1016.2
20260904050904 15 51 0.0 3.2 0.00 0.03 0.00 89 1016.2
20260904050404 15 51 1.6 4.8 0.00 0.03 0.00 89 1016.3
20260904045904 15 51 1.6 4.8 0.00 0.03 0.00 89 1016.4
20260904045404 15 51 1.6 4.8 0.00 0.03 0.00 89 1016.4
20260904044904 15 51 0.0 1.6 0.00 0.03 0.00 89 1016.4
20260904044404 15 51 0.0 3.2 0.00 0.03 0.00 89 1016.3
20260904043904 15 51 1.6 4.8 0.00 0.03 0.00 89 1016.2
20260904043404 15 51 1.6 3.2 0.00 0.03 0.00 89 1016.4
20260904042904 15 51 1.6 3.2 0.00 0.03 0.00 89 1016.3
20260904041904 15 51 1.6 3.2 0.00 0.03 0.00 89 1016.3
20260904041404 15 51 0.0 1.6 0.00 0.03 0.00 89 1016.4